Location: Wildlife_Club
(35.6000°N, 81.4330°W)
Time: 01:06:29
(UTC-04:00)

Vanguard 2 - All Passes

Search period start: 19 June 2019 00:00
Search period end: 29 June 2019 00:00
Orbit: 553 x 2939 km, 32.9° (Epoch: 18 June)

Date Brightness Start Highest point End Pass type
(mag) Time Alt. Az. Time Alt. Az. Time Alt. Az.
19 Jun - 09:06:18 10° SSW 09:10:56 31° SSE 09:17:48 10° E daylight
19 Jun - 11:12:35 10° WSW 11:19:17 71° S 11:30:48 10° E daylight
19 Jun - 13:20:22 10° W 13:29:25 74° S 13:44:27 10° ESE daylight
19 Jun - 15:29:11 10° W 15:40:34 51° SSW 15:56:47 10° SE daylight
19 Jun - 17:40:56 10° W 17:51:55 24° SW 18:04:35 10° S daylight
20 Jun - 09:23:38 10° SW 09:28:34 41° SSE 09:36:15 10° E daylight
20 Jun - 11:30:27 10° W 11:37:17 75° S 11:49:08 10° E daylight
20 Jun - 13:38:20 10° W 13:47:31 68° SSW 14:02:35 10° ESE daylight
20 Jun - 15:47:28 10° W 15:58:37 42° SSW 16:14:03 10° SE daylight
20 Jun - 18:00:58 10° WSW 18:09:50 18° SW 18:19:41 10° S daylight
21 Jun - 07:37:00 10° SSE 07:39:01 13° SE 07:41:18 10° ESE daylight
21 Jun - 09:41:12 10° SW 09:46:19 52° SSE 09:54:34 10° E daylight
21 Jun - 11:48:21 10° W 11:55:20 76° S 12:07:26 10° E daylight
21 Jun - 13:56:20 10° W 14:05:37 60° SSW 14:20:33 10° ESE daylight
21 Jun - 16:05:57 10° W 16:16:39 34° SSW 16:30:56 10° SSE daylight
21 Jun - 18:23:35 10° SW 18:27:48 11° SW 18:32:13 10° SSW daylight
22 Jun - 07:53:14 10° SSW 07:56:31 20° SE 08:00:38 10° E daylight
22 Jun - 09:58:54 10° WSW 10:04:11 62° SSE 10:12:51 10° E daylight
22 Jun - 12:06:15 10° W 12:13:23 73° S 12:25:43 10° ESE daylight
22 Jun - 14:14:24 10° W 14:23:41 51° SSW 14:38:17 10° SE daylight
22 Jun - 16:24:49 10° W 16:34:41 26° SSW 16:47:18 10° SSE daylight
23 Jun - 08:10:17 10° SSW 08:14:07 28° SSE 08:19:15 10° E daylight
23 Jun - 10:16:42 10° WSW 10:22:06 69° S 10:31:06 10° E daylight
23 Jun - 12:24:11 10° W 12:31:27 68° S 12:43:53 10° ESE daylight
23 Jun - 14:32:34 10° W 14:41:46 43° SSW 14:55:44 10° SE daylight
23 Jun - 16:44:20 10° WSW 16:52:44 19° SW 17:02:52 10° S daylight
24 Jun - 08:27:42 10° SW 08:31:48 39° SSE 08:37:36 10° E daylight
24 Jun - 10:34:34 10° W 10:40:05 72° S 10:49:20 10° E daylight
24 Jun - 12:42:09 10° W 12:49:30 60° SSW 13:01:56 10° ESE daylight
24 Jun - 14:50:56 10° W 14:59:51 34° SSW 15:12:49 10° SSE daylight
24 Jun - 17:05:29 10° WSW 17:10:49 13° SW 17:16:45 10° SSW daylight
25 Jun - 06:40:34 10° S 06:42:12 12° SE 06:43:57 10° ESE daylight
25 Jun - 08:45:19 10° WSW 08:49:36 50° SSE 08:55:50 10° E daylight
25 Jun - 10:52:28 10° W 10:58:05 71° S 11:07:35 10° E daylight
25 Jun - 13:00:09 10° W 13:07:33 51° SSW 13:19:46 10° SE daylight
25 Jun - 15:09:36 10° W 15:17:56 26° SSW 15:29:24 10° SSE daylight
26 Jun - 06:56:57 10° SSW 06:59:51 19° SSE 07:03:07 10° ESE daylight
26 Jun - 09:03:05 10° WSW 09:07:28 60° SSE 09:14:01 10° E daylight
26 Jun - 11:10:22 10° W 11:16:06 67° S 11:25:44 10° ESE daylight
26 Jun - 13:18:16 10° W 13:25:37 42° SSW 13:37:21 10° SE daylight
26 Jun - 15:28:50 10° WSW 15:36:03 19° SSW 15:45:18 10° S daylight
27 Jun - 07:14:07 10° SW 07:17:33 28° SSE 07:21:35 10° E daylight
27 Jun - 09:20:55 10° WSW 09:25:23 67° S 09:32:12 10° E daylight
27 Jun - 11:28:18 10° W 11:34:06 59° S 11:43:48 10° ESE daylight
27 Jun - 13:36:32 10° W 13:43:42 33° SSW 13:54:35 10° SE daylight
27 Jun - 15:49:25 10° SW 15:54:12 13° SSW 15:59:43 10° S daylight
28 Jun - 07:31:37 10° SW 07:35:19 38° SSE 07:39:51 10° E daylight
28 Jun - 09:38:47 10° W 09:43:20 68° S 09:50:21 10° E daylight
28 Jun - 11:46:16 10° W 11:52:07 49° SSW 12:01:42 10° SE daylight
28 Jun - 13:55:05 10° WSW 14:01:48 25° SSW 14:11:22 10° SSE daylight
